Total_Precipitation_Accumulation
2.17 2.24 2.26 2.32 2.19 2.03 2.01 2.11 2.24 2.04 1.88 1.69 1.47 1.28 1.37 1.37 1.44 1.26 1.21 1.14 1.03 0.96 0.92 0.85 0.79 0.83 1.03 1.37 1.50 1.46 1.56 1.79 2.17 2.50 2.36 2.23 2.14 2.09
1.95 2.02 2.06 2.12 2.13 2.11 2.08 2.08 2.06 2.00 1.91 1.72 1.43 1.16 1.23 1.30 1.45 1.25 1.29 1.37 1.17 1.02 0.91 0.89 0.86 0.81 0.84 0.97 1.06 0.97 0.93 1.01 1.30 1.93 2.18 2.15 2.17 2.24
1.71 1.74 1.85 1.91 2.08 2.13 2.10 2.06 2.03 1.94 1.82 1.73 1.49 1.26 1.25 1.33 1.40 1.32 1.35 1.35 1.18 1.10 1.01 0.95 0.86 0.89 0.92 0.94 1.01 0.94 0.80 0.74 0.79 1.01 1.33 1.53 1.72 1.97
1.50 1.52 1.63 1.69 1.83 1.95 2.05 1.96 1.96 1.91 1.91 1.86 1.64 1.42 1.35 1.36 1.44 1.40 1.29 1.27 1.25 1.24 1.13 1.06 0.97 0.90 0.95 0.93 1.03 1.08 0.99 0.84 0.76 0.77 0.89 1.07 1.27 1.46
1.28 1.33 1.38 1.44 1.57 1.68 1.78 1.87 1.89 1.81 1.91 1.91 1.70 1.48 1.36 1.32 1.36 1.34 1.30 1.36 1.26 1.27 1.23 1.13 1.08 1.01 1.01 1.00 0.99 1.07 1.07 0.99 0.84 0.81 0.88 0.96 1.05 1.16
1.04 1.04 1.06 1.08 1.20 1.33 1.44 1.59 1.76 1.88 1.96 1.99 1.84 1.56 1.38 1.33 1.38 1.43 1.44 1.38 1.39 1.27 1.27 1.25 1.24 1.19 1.12 1.12 1.02 0.99 1.05 1.05 0.93 0.85 0.84 0.88 0.90 0.90
1.05 0.93 0.86 0.85 0.95 1.03 1.13 1.39 1.59 1.76 1.90 1.97 1.89 1.72 1.53 1.44 1.39 1.39 1.48 1.59 1.59 1.43 1.36 1.27 1.23 1.11 1.01 1.04 1.03 0.97 0.94 0.95 0.89 0.82 0.75 0.69 0.70 0.75
0.99 0.97 0.96 0.91 0.79 0.76 0.82 0.99 1.23 1.44 1.63 1.76 1.79 1.66 1.49 1.45 1.49 1.49 1.48 1.55 1.61 1.46 1.42 1.48 1.41 1.28 1.13 1.03 1.09 1.01 0.94 0.93 0.94 0.92 0.85 0.78 0.76 0.75
0.95 0.94 0.96 0.95 0.99 0.89 0.83 0.82 0.85 1.02 1.27 1.49 1.53 1.49 1.55 1.47 1.43 1.38 1.36 1.36 1.37 1.39 1.41 1.45 1.45 1.32 1.15 1.09 1.19 1.13 1.06 0.99 0.97 1.00 0.99 0.92 0.84 0.78
1.00 1.01 1.05 1.07 1.03 1.14 1.11 1.01 0.94 0.93 1.03 0.98 1.09 1.37 1.49 1.50 1.49 1.50 1.53 1.45 1.38 1.36 1.31 1.35 1.30 1.25 1.14 1.06 1.12 1.06 1.00 0.96 0.95 0.96 1.00 1.03 1.02 0.97
0.98 0.96 1.02 1.04 1.24 1.28 1.19 1.16 1.08 1.02 1.17 1.18 1.20 1.26 1.34 1.35 1.35 1.43 1.50 1.45 1.39 1.32 1.25 1.16 1.12 1.21 1.26 1.16 1.12 1.17 1.11 1.03 0.98 1.01 1.03 1.04 1.10 1.11
1.06 0.99 1.14 1.10 1.11 1.06 1.02 1.21 1.18 1.07 0.98 0.95 0.96 1.02 1.04 1.10 1.17 1.20 1.35 1.38 1.32 1.32 1.20 1.15 1.11 1.19 1.26 1.18 1.05 1.03 1.07 1.11 1.07 1.04 1.08 1.10 1.12 1.06
1.06 1.05 1.01 1.08 0.92 0.87 0.92 1.06 1.21 1.16 1.10 1.12 1.05 0.99 0.97 0.97 0.93 1.00 1.15 1.25 1.28 1.27 1.14 1.11 1.15 1.18 1.12 1.03 1.02 0.93 0.85 0.88 0.89 0.88 0.90 0.98 1.04 1.00
0.93 0.83 0.81 0.88 0.74 0.70 0.69 0.82 1.00 1.03 1.03 1.09 1.06 0.99 0.93 0.90 0.88 0.89 0.98 1.06 1.10 1.12 1.14 1.12 1.13 1.14 1.12 0.96 0.90 0.89 0.85 0.82 0.80 0.79 0.75 0.88 0.93 0.98
0.74 0.73 0.65 0.62 0.60 0.56 0.59 0.69 0.75 0.89 1.02 1.04 0.94 0.87 0.87 0.90 0.91 0.90 0.88 0.92 0.96 0.96 0.96 0.95 1.02 1.10 1.15 1.04 0.91 0.86 0.87 0.89 0.84 0.83 0.82 0.78 0.77 0.82
0.53 0.46 0.44 0.47 0.53 0.53 0.53 0.55 0.61 0.83 1.00 0.98 0.90 0.84 0.86 0.90 0.98 1.01 0.98 0.93 0.94 0.95 0.93 0.93 0.95 1.01 1.01 0.94 0.93 0.89 0.88 0.88 0.86 0.90 0.93 0.89 0.81 0.75
0.68 0.58 0.52 0.50 0.50 0.53 0.54 0.58 0.70 0.81 0.91 0.86 0.87 0.84 0.85 0.92 0.97 1.02 1.09 1.07 0.99 0.94 0.99 1.05 1.10 1.12 1.07 1.04 1.00 0.94 0.95 0.93 0.92 0.96 0.99 0.97 0.89 0.82
0.70 0.70 0.69 0.67 0.65 0.64 0.63 0.59 0.60 0.67 0.76 0.82 0.82 0.84 0.84 0.85 0.87 0.91 0.99 1.04 1.02 0.97 0.91 0.96 1.09 1.22 1.23 1.13 1.00 0.94 1.00 1.01 1.01 1.03 1.00 0.95 0.87 0.85
0.62 0.64 0.65 0.62 0.61 0.60 0.58 0.56 0.54 0.54 0.62 0.72 0.82 0.89 0.91 0.91 0.90 0.87 0.86 0.89 0.87 0.86 0.85 0.84 0.93 1.05 1.16 1.09 0.94 0.82 0.87 0.96 1.00 0.98 0.95 0.90 0.82 0.80
0.47 0.53 0.54 0.53 0.52 0.52 0.49 0.47 0.47 0.49 0.52 0.57 0.66 0.78 0.93 1.03 1.03 1.01 0.97 0.96 0.94 0.88 0.86 0.85 0.82 0.87 0.98 0.97 0.87 0.76 0.75 0.84 0.91 0.90 0.85 0.85 0.83 0.87
0.30 0.36 0.39 0.40 0.42 0.42 0.43 0.44 0.45 0.47 0.50 0.53 0.55 0.59 0.71 0.86 0.97 1.02 1.09 1.19 1.17 1.09 1.04 1.00 0.96 1.01 0.98 1.01 0.93 0.71 0.65 0.70 0.77 0.79 0.81 0.86 0.84 0.80
0.29 0.31 0.33 0.34 0.38 0.41 0.42 0.43 0.44 0.45 0.48 0.52 0.53 0.57 0.64 0.73 0.82 0.91 0.98 1.06 1.12 1.15 1.13 1.09 1.07 1.10 1.09 1.11 1.00 0.81 0.72 0.70 0.73 0.81 0.84 0.92 0.92 0.85
0.29 0.29 0.31 0.33 0.35 0.40 0.49 0.53 0.50 0.48 0.50 0.55 0.61 0.64 0.66 0.71 0.75 0.82 0.89 0.96 1.02 1.02 1.03 1.04 1.02 1.01 1.01 0.99 1.00 0.95 0.85 0.79 0.78 0.77 0.73 0.83 0.88 0.82